Date,TemperatureHighF,TemperatureAvgF,TemperatureLowF,DewpointHighF,DewpointAvgF,DewpointLowF,HumidityHigh,HumidityAvg,HumidityLow,PressureMaxIn,PressureMinIn,WindSpeedMaxMPH,WindSpeedAvgMPH,GustSpeedMaxMPH,PrecipitationSumIn
2014-1-1,79.4,73.0,67.6,71.2,67.2,62.7,88,82,71,29.94,29.83,5,1,6,0.00
2014-1-2,82.6,75.3,68.5,70.7,67.8,63.3,87,78,64,29.88,29.72,7,2,16,0.00
2014-1-3,76.1,72.3,68.1,69.5,64.6,59.2,94,77,64,29.87,29.71,11,4,13,1.26
2014-1-4,74.8,71.9,68.5,61.6,58.5,54.1,70,63,53,29.97,29.84,11,6,15,0.00
2014-1-5,74.5,70.2,65.9,59.9,56.6,54.3,77,63,51,29.98,29.88,7,4,13,0.02
2014-1-6,75.7,71.8,68.1,60.7,57.9,54.0,70,62,52,30.04,29.95,9,6,14,0.00
2014-1-7,74.6,71.8,66.3,65.9,61.0,55.9,85,69,60,30.07,29.97,11,8,18,0.03
2014-1-8,74.7,70.6,65.9,66.1,62.5,58.7,90,76,62,30.02,29.90,11,5,16,0.06
2014-1-9,77.7,70.4,64.8,67.7,63.9,59.9,91,80,67,30.00,29.87,6,2,9,0.07
2014-1-10,76.3,71.6,67.7,70.0,66.7,63.2,92,85,75,29.98,29.84,6,3,10,0.33
2014-1-11,80.1,73.6,67.9,70.4,66.4,60.5,87,78,67,29.94,29.84,5,1,9,0.00
2014-1-12,84.0,75.7,69.7,71.7,68.3,64.7,87,78,60,29.96,29.85,5,1,9,0.00
2014-1-13,79.0,73.8,69.6,71.8,68.3,64.4,91,83,75,29.95,29.84,2,0,5,0.00
2014-1-14,80.2,72.1,69.3,71.0,67.3,65.2,90,85,73,29.90,29.84,5,1,14,0.18
2014-1-16,79.8,76.0,69.7,70.7,68.8,66.7,92,79,69,29.96,29.86,5,2,9,0.31
2014-1-17,79.7,73.1,68.5,70.8,67.7,63.6,93,83,70,30.00,29.93,4,1,7,0.15
2014-1-18,79.3,73.1,67.6,69.9,66.7,62.3,87,80,68,30.02,29.90,7,2,12,0.00
2014-1-19,77.8,72.6,67.4,70.1,66.9,63.6,89,83,75,29.95,29.86,5,1,12,0.00
2014-1-20,78.1,72.9,68.5,68.6,66.7,64.1,89,81,72,29.94,29.82,5,2,9,0.00
2014-1-21,82.3,74.7,67.6,69.6,67.2,62.5,88,78,60,29.89,29.77,7,2,21,0.00
2014-1-22,76.3,72.2,67.8,68.8,63.6,55.0,93,75,56,29.91,29.72,13,5,19,0.96
2014-1-23,74.2,69.5,64.3,59.0,57.0,53.9,77,65,57,29.95,29.81,8,4,14,0.00
2014-1-24,77.4,69.2,61.7,61.6,57.9,54.6,82,68,50,29.93,29.78,4,1,8,0.00
2014-1-25,79.8,72.4,64.8,63.1,59.7,57.1,77,65,51,29.86,29.73,7,3,15,0.00
2014-1-26,82.6,73.2,67.4,68.7,64.5,58.8,94,75,59,29.90,29.77,7,3,16,0.21
2014-1-27,72.1,68.2,65.9,68.5,65.3,62.0,95,91,79,30.01,29.85,11,4,16,0.78
2014-1-28,71.5,68.0,65.0,65.2,63.7,62.1,94,87,77,30.06,29.95,14,7,21,0.73
2014-1-29,72.8,68.9,65.8,68.8,65.4,62.1,93,88,84,30.02,29.92,8,4,15,0.95
2014-1-30,79.3,72.7,65.3,69.7,66.2,60.9,87,80,68,29.97,29.83,5,1,9,0.00
2014-1-31,81.4,74.2,69.4,71.2,67.5,63.8,89,80,68,29.88,29.79,5,1,11,0.00
2014-2-1,80.7,72.6,68.2,72.8,68.8,66.0,94,88,75,29.88,29.77,12,3,20,0.87
2014-2-2,75.9,71.2,68.6,69.7,67.4,65.8,94,88,78,29.97,29.82,5,2,9,0.27
2014-2-3,78.7,71.1,64.7,68.4,65.9,62.5,94,84,68,29.99,29.86,7,3,11,0.98
2014-2-4,76.9,71.1,64.8,69.1,66.0,62.1,92,84,73,29.96,29.82,6,2,10,0.10
2014-2-5,84.8,74.8,69.2,71.4,68.8,65.2,91,82,59,29.94,29.80,5,1,12,0.02
2014-2-6,74.6,71.7,70.7,69.4,68.6,67.9,92,90,83,29.97,29.90,1,0,3,0.00
2014-2-7,76.5,72.9,69.9,71.6,69.9,67.8,95,90,84,29.96,29.82,9,3,0,0.42
2014-2-8,76.4,72.3,70.0,72.3,70.0,68.5,95,92,85,29.95,29.86,10,4,0,0.38
2014-2-9,80.1,73.9,67.8,71.8,68.3,64.3,94,83,66,29.95,29.81,8,2,0,0.01
2014-2-10,83.6,74.5,69.2,72.6,68.1,64.9,91,81,60,30.00,29.88,4,1,5,0.00
2014-2-11,81.5,74.1,67.2,71.8,67.1,62.3,86,79,67,30.02,29.89,4,1,6,0.00
2014-2-12,81.9,75.5,70.6,70.1,67.4,65.5,88,76,61,29.98,29.86,4,1,6,0.00
2014-2-13,81.2,74.8,68.6,72.9,68.5,63.2,87,81,69,29.96,29.83,6,1,9,0.00
2014-2-14,80.6,74.7,70.5,72.2,69.7,66.3,92,85,74,29.98,29.88,10,3,13,0.01
2014-2-15,79.5,74.9,72.3,71.7,69.9,68.4,92,85,76,29.96,29.86,9,5,14,0.02
2014-2-16,79.3,74.0,70.4,71.7,68.8,66.3,92,84,75,29.95,29.85,8,1,12,0.12
2014-2-17,79.8,73.9,68.8,70.5,68.5,65.7,92,83,65,29.90,29.77,6,2,11,0.06
2014-2-18,80.3,73.9,70.8,72.5,69.3,66.7,91,86,73,29.95,29.84,4,1,10,0.09
2014-2-19,81.8,74.3,67.8,73.3,68.8,63.9,89,83,72,29.98,29.87,5,2,10,0.00
2014-2-20,81.8,75.3,70.3,72.5,69.0,65.5,88,81,69,29.94,29.82,6,2,11,0.00
2014-2-21,80.2,74.5,68.4,71.4,68.4,64.4,90,81,71,29.94,29.82,3,0,4,0.00
2014-2-22,80.0,74.4,68.5,72.0,68.0,63.1,87,80,72,29.97,29.88,6,2,10,0.00
2014-2-23,79.9,74.8,69.4,70.9,67.8,64.0,86,79,70,29.98,29.90,7,2,11,0.00
2014-2-24,76.8,73.9,68.7,68.7,65.7,61.1,85,76,67,29.98,29.87,8,5,13,0.00
2014-2-25,73.5,69.9,65.9,67.1,63.2,59.6,91,79,70,29.95,29.85,8,3,11,0.10
2014-2-26,76.4,70.9,65.7,65.2,61.9,59.0,87,74,58,30.00,29.89,9,4,13,0.00
2014-2-27,77.3,71.5,66.6,63.3,60.4,57.3,80,68,59,30.02,29.89,8,4,17,0.00
2014-2-28,84.9,71.5,65.2,70.0,65.1,60.7,93,81,53,29.95,29.85,10,1,12,0.11
2014-3-1,80.4,72.9,67.7,71.8,67.8,64.3,93,84,69,29.94,29.83,5,1,8,0.35
2014-3-2,73.5,69.7,66.7,69.9,66.8,64.0,94,90,85,29.95,29.82,6,1,10,0.90
2014-3-3,77.8,70.5,66.1,66.1,62.7,58.9,93,77,62,29.92,29.76,6,2,12,0.35
2014-3-4,78.9,70.7,64.1,64.0,60.0,56.3,86,70,48,30.01,29.87,5,1,10,0.00
2014-3-5,80.9,72.4,66.2,66.8,62.7,58.3,82,72,58,30.03,29.91,4,2,8,0.00
2014-3-6,85.0,74.1,66.2,72.2,66.6,60.3,91,78,59,30.00,29.86,4,1,10,0.07
2014-3-7,84.6,74.2,67.9,72.0,68.1,64.3,94,82,62,30.00,29.87,6,2,11,0.99
2014-3-8,77.0,70.4,66.3,69.6,66.7,64.2,93,88,75,30.06,29.92,6,2,11,0.32
2014-3-9,77.2,72.7,69.3,71.6,68.6,66.9,93,87,77,30.07,29.95,8,5,18,0.27
2014-3-10,80.3,73.5,69.1,69.9,66.1,62.3,92,78,62,30.06,29.92,6,3,10,0.03
2014-3-11,76.9,72.8,68.5,67.4,64.5,62.1,84,75,68,30.02,29.93,7,4,12,0.00
2014-3-12,78.9,73.6,69.3,69.2,66.7,63.8,88,79,68,30.06,29.95,8,5,15,0.04
2014-3-13,79.3,73.9,68.6,69.1,67.4,65.2,90,80,68,30.07,29.98,8,5,13,0.04
2014-3-14,78.8,72.9,69.2,71.0,68.3,65.7,92,86,75,30.08,29.98,7,4,11,0.36
2014-3-15,75.8,71.1,67.7,69.1,66.0,60.4,92,84,73,30.12,29.99,17,9,25,0.25
2014-3-16,74.5,69.7,65.1,64.3,61.1,57.6,92,75,60,30.11,29.98,14,9,23,0.13
2014-3-17,74.9,70.4,66.9,65.4,62.1,59.4,84,75,66,30.05,29.94,10,6,15,0.00
2014-3-18,75.5,71.0,67.3,64.3,62.1,59.8,86,74,62,30.00,29.88,9,5,15,0.00
2014-3-19,78.0,72.1,67.4,64.8,62.4,60.1,81,72,60,29.98,29.87,7,4,13,0.00
2014-3-20,78.9,73.0,66.4,68.2,63.7,56.3,84,73,65,30.03,29.92,7,4,14,0.00
2014-3-21,74.3,71.7,69.9,69.0,67.1,65.1,91,85,79,30.04,29.95,10,6,16,0.12
2014-3-22,74.3,71.7,70.0,68.4,67.5,66.1,92,87,81,30.06,29.98,9,6,18,0.30
2014-3-23,77.0,73.6,71.7,68.8,66.6,65.2,83,79,73,30.10,29.99,9,6,17,0.00
2014-3-24,77.5,73.6,71.5,68.2,65.6,63.3,82,76,69,30.14,30.04,9,6,16,0.00
2014-3-25,79.4,73.6,70.4,69.8,68.0,65.6,92,83,70,30.12,30.01,10,5,15,0.42
2014-3-26,80.8,75.0,70.6,72.8,69.3,66.6,92,83,73,30.11,30.00,8,4,13,0.08
2014-3-27,81.3,75.4,69.3,73.0,69.0,64.6,87,81,72,30.07,29.96,8,3,13,0.01
2014-3-28,82.2,75.0,70.0,72.5,67.8,64.3,87,79,66,30.05,29.95,5,1,9,0.03
2014-3-29,79.5,72.7,68.3,70.2,65.8,62.2,86,79,64,30.01,29.91,7,2,10,0.00
2014-3-30,79.8,73.3,68.7,69.9,66.3,62.2,90,79,58,30.00,29.91,9,5,15,0.19
2014-3-31,78.6,74.2,70.7,69.7,68.0,66.6,88,81,72,30.02,29.92,9,5,17,0.01
2014-4-1,78.5,73.5,70.8,71.1,68.9,66.9,91,85,77,30.06,29.94,9,6,19,0.18
2014-4-2,79.6,74.7,70.6,71.5,69.3,67.5,91,84,74,30.10,30.01,9,7,23,0.21
2014-4-3,79.3,75.2,72.6,69.1,67.4,66.0,84,77,68,30.11,30.00,11,8,19,0.00
2014-4-4,79.1,74.4,71.6,68.9,66.5,64.8,83,77,65,30.06,29.94,10,6,17,0.00
2014-4-5,83.9,75.2,67.9,69.4,66.1,61.1,83,74,58,30.00,29.92,4,1,8,0.00
2014-4-6,78.0,73.3,68.5,70.6,67.4,64.1,92,82,72,30.06,29.94,14,5,15,0.04
2014-4-7,73.3,68.6,65.8,67.7,64.9,61.5,93,88,79,30.09,30.00,13,6,16,0.52
2014-4-8,75.6,70.9,65.4,63.0,60.5,56.8,90,70,56,30.08,29.98,11,8,18,0.06
2014-4-9,76.3,72.2,69.4,61.8,59.2,55.2,74,64,53,30.06,29.98,8,6,15,0.00
2014-4-10,77.1,72.0,66.8,64.8,62.2,58.9,86,72,60,30.05,29.95,8,4,14,0.02
2014-4-11,79.7,73.3,69.1,65.7,63.7,61.4,83,72,57,30.09,29.98,10,4,15,0.00
2014-4-12,77.2,70.9,65.8,68.6,65.6,62.3,92,83,69,30.09,29.99,11,6,19,0.36
2014-4-13,76.5,72.7,68.8,68.5,65.3,60.6,89,78,67,30.12,30.02,13,9,25,0.18
2014-4-14,79.1,74.1,71.3,67.2,63.2,58.4,79,69,50,30.14,30.04,13,9,20,0.00
2014-4-15,76.9,71.7,66.6,68.8,66.1,62.7,90,83,72,30.09,29.99,11,7,17,0.47
2014-4-16,78.5,74.0,69.0,69.5,67.3,65.1,90,80,71,30.10,30.00,10,6,17,0.14
2014-4-17,79.5,74.4,70.7,72.0,69.0,66.7,89,83,76,30.09,29.98,9,5,18,0.08
2014-4-18,80.9,75.3,73.1,70.7,68.7,66.1,88,80,67,30.09,30.01,10,7,18,0.01
2014-4-19,77.6,73.7,70.6,69.0,66.5,64.6,90,78,71,30.09,30.00,9,6,19,0.03
2014-4-20,78.9,73.5,69.7,70.2,68.0,65.4,91,83,73,30.13,30.03,11,7,16,0.08
2014-4-21,76.3,72.9,69.9,70.7,68.4,66.7,91,86,81,30.11,30.02,12,8,23,0.10
2014-4-22,79.1,75.0,72.2,70.1,67.6,65.6,85,78,69,30.08,29.95,13,7,18,0.01
2014-4-23,80.2,75.2,71.2,70.2,67.8,65.6,85,78,69,30.08,29.98,11,7,17,0.01
2014-4-24,79.9,75.0,70.4,71.2,68.4,66.0,88,80,72,30.10,30.00,10,7,17,0.04
2014-4-25,79.7,74.5,70.7,70.2,67.9,66.0,90,80,70,30.11,30.03,10,7,15,0.18
2014-4-26,77.8,73.4,70.1,69.9,67.5,65.5,88,82,73,30.09,29.99,11,7,21,0.09
2014-4-27,79.7,73.8,68.2,70.7,67.9,65.2,93,82,71,30.04,29.92,10,5,15,0.14
2014-4-28,79.1,73.4,69.2,70.3,67.4,65.1,92,82,70,30.00,29.92,8,3,12,0.20
2014-4-29,78.0,71.5,67.1,69.5,66.0,63.5,93,83,69,30.02,29.93,8,4,13,0.92
2014-4-30,76.7,71.7,67.9,68.4,65.9,64.2,91,82,73,30.04,29.96,9,5,17,0.16
2014-5-1,77.9,72.2,67.0,68.5,65.8,63.6,90,81,70,30.02,29.94,8,5,12,0.03
2014-5-2,74.8,71.3,69.0,72.1,68.5,65.3,93,91,82,30.06,29.94,7,2,12,1.50
2014-5-3,83.8,75.6,67.8,73.4,68.8,64.4,91,80,65,30.04,29.96,5,2,11,0.00
2014-5-4,82.3,76.0,71.1,72.8,69.2,65.5,88,80,66,30.04,29.95,6,2,10,0.00
2014-5-5,84.8,76.7,70.2,72.2,69.3,65.5,88,78,62,30.08,29.98,7,2,13,0.00
2014-5-6,84.2,77.0,72.4,70.7,68.6,65.7,85,76,55,30.08,29.98,9,4,14,0.00
2014-5-7,84.2,77.0,72.1,73.0,69.6,65.7,85,78,66,30.08,29.99,7,3,10,0.00
2014-5-8,85.2,77.3,70.2,72.7,69.3,65.7,86,77,60,30.05,29.96,5,1,7,0.00
2014-5-9,84.0,77.7,72.4,73.4,69.8,65.9,87,77,67,30.05,29.97,4,1,7,0.01
2014-5-10,85.4,77.2,69.6,72.4,69.3,64.0,87,77,63,30.05,29.95,5,1,7,0.00
2014-5-11,83.1,75.9,70.6,72.6,69.3,66.1,88,80,65,30.03,29.95,8,4,14,0.00
2014-5-12,75.5,72.0,68.5,69.4,67.5,65.5,93,86,77,30.02,29.93,10,6,18,0.39
2014-5-13,73.2,70.7,67.8,68.2,66.2,64.6,92,86,77,29.97,29.89,12,5,16,0.11
2014-5-14,74.0,71.5,67.9,70.6,68.1,65.8,94,89,83,29.98,29.89,8,5,16,0.07
2014-5-15,80.7,75.3,70.2,73.5,70.4,67.1,93,85,77,30.01,29.92,6,2,11,0.03
2014-5-16,84.4,76.9,69.8,71.2,67.5,63.9,89,74,53,30.02,29.94,8,3,12,0.00
2014-5-17,83.4,76.6,68.9,70.9,67.5,63.0,85,74,61,30.01,29.90,7,3,14,0.00
2014-5-18,85.4,76.7,69.1,71.4,67.6,63.4,85,74,58,29.98,29.90,5,1,8,0.00
2014-5-19,86.1,78.1,70.0,70.3,67.8,65.3,86,71,53,29.97,29.89,5,1,9,0.00
2014-5-20,85.7,77.8,70.1,70.6,67.5,63.8,84,71,53,30.00,29.91,6,2,11,0.00
2014-5-21,82.4,76.1,70.4,72.3,69.1,63.7,90,79,65,30.02,29.94,7,3,13,0.00
2014-5-22,87.7,78.9,71.4,74.7,70.6,67.1,90,77,64,29.99,29.91,5,2,11,0.00
2014-5-23,88.6,79.9,72.4,73.4,70.7,67.6,86,74,57,30.01,29.93,4,1,7,0.00
2014-5-24,83.8,77.2,70.7,73.1,70.3,67.2,91,80,66,30.03,29.92,5,1,11,0.15
2014-5-25,80.8,74.1,70.9,72.6,69.6,67.1,91,86,72,30.04,29.94,4,1,7,0.13
2014-5-26,82.3,75.5,71.1,71.6,68.8,66.7,90,80,68,30.05,29.94,7,3,14,0.02
2014-5-27,82.1,76.0,71.6,72.0,68.8,66.7,88,79,69,30.07,29.95,9,5,13,0.04
2014-5-28,83.4,76.6,72.2,71.9,69.0,67.0,89,78,63,30.04,29.96,8,4,13,0.14
2014-5-29,82.1,75.9,71.5,72.4,69.6,67.4,89,81,71,30.02,29.93,7,4,13,0.08
2014-5-30,82.4,76.6,70.2,72.3,69.0,66.3,90,78,66,30.00,29.92,8,4,14,0.06
2014-5-31,82.3,76.9,73.0,71.8,69.0,67.0,83,77,68,30.01,29.92,8,4,14,0.00
2014-6-1,80.9,76.4,73.2,71.3,69.3,66.4,85,79,71,29.99,29.89,8,4,14,0.01
2014-6-2,85.2,77.7,69.7,71.7,67.6,63.3,82,72,55,29.96,29.89,6,2,11,0.00
2014-6-3,84.2,77.5,70.7,72.0,68.7,65.0,84,75,63,29.98,29.89,8,3,13,0.00
2014-6-4,82.7,77.2,72.4,70.9,68.3,66.5,83,74,63,29.99,29.91,9,4,17,0.00
2014-6-5,81.4,76.4,72.1,71.8,68.3,66.3,85,76,67,30.00,29.93,9,5,16,0.02
2014-6-6,81.7,75.9,71.0,71.2,68.4,66.0,89,78,66,30.00,29.94,8,5,15,0.12
2014-6-7,82.7,76.7,70.7,71.7,68.0,65.9,89,75,63,30.00,29.93,10,5,17,0.03
2014-6-8,83.4,75.9,69.8,71.0,68.0,65.3,89,77,57,29.99,29.91,8,5,17,0.06
2014-6-9,83.6,77.1,70.8,71.8,69.3,66.7,91,77,65,30.01,29.93,8,5,16,0.02
2014-6-10,81.8,76.1,72.1,73.3,70.9,68.6,93,84,70,30.03,29.95,7,4,15,0.12
2014-6-11,84.6,78.1,74.0,72.7,70.5,68.4,85,78,60,30.04,29.96,8,4,14,0.00
2014-6-12,83.1,77.8,74.2,71.3,69.1,67.7,83,75,64,30.02,29.94,8,4,13,0.00
2014-6-13,83.3,77.5,73.0,70.6,67.8,66.3,81,72,61,30.02,29.95,9,4,16,0.00
2014-6-14,81.9,76.9,73.5,71.7,68.3,66.4,86,75,65,30.02,29.95,9,5,15,0.01
2014-6-15,81.9,75.8,70.8,70.9,68.2,65.2,87,78,66,30.02,29.95,9,4,17,0.08
2014-6-16,82.4,77.0,71.5,69.6,67.5,65.6,87,73,61,30.00,29.92,9,5,15,0.04
2014-6-17,81.7,75.2,70.5,72.2,68.6,66.2,90,80,67,30.00,29.93,8,4,14,0.17
2014-6-18,82.6,76.6,72.8,70.9,68.2,66.3,84,75,65,30.05,29.97,8,5,14,0.02
2014-6-19,81.6,76.8,71.4,70.0,67.2,65.2,85,73,62,30.07,29.99,8,5,14,0.02
2014-6-20,79.5,72.1,68.5,69.6,66.3,63.4,90,82,69,30.06,30.01,5,2,11,0.05
2014-7-17,82.3,76.4,70.9,73.5,69.5,67.1,92,80,66,30.00,29.90,9,5,0,0.20
2014-7-18,83.2,77.8,73.2,70.0,67.8,66.3,82,72,60,29.98,29.89,10,4,0,0.00
2014-7-19,82.9,76.7,73.4,73.8,70.8,66.3,93,82,68,29.98,29.89,9,4,0,0.77
2014-7-20,78.0,74.6,69.3,73.9,71.6,67.3,94,90,81,30.02,29.84,17,5,0,3.00
2014-7-21,82.1,78.0,75.3,77.8,74.8,72.4,93,90,83,29.96,29.87,7,2,0,0.16
2014-7-22,83.4,78.3,75.5,76.0,73.3,70.7,92,85,76,30.03,29.91,8,3,0,0.00
2014-7-23,84.6,78.3,74.2,74.2,70.9,68.8,85,78,65,30.04,29.95,9,5,14,0.00
2014-7-24,83.4,78.4,74.6,72.6,70.1,68.4,83,76,67,30.04,29.95,9,4,13,0.00
2014-7-25,84.8,78.2,73.5,73.5,70.6,67.8,89,78,66,29.98,29.89,6,3,13,0.16
2014-7-26,84.3,78.4,73.8,75.4,72.3,68.3,89,82,70,29.95,29.87,6,3,12,0.03
2014-7-27,85.4,80.3,76.5,75.1,72.4,70.6,86,77,64,30.01,29.87,8,4,16,0.01
2014-7-28,84.7,79.3,75.2,74.7,71.8,69.7,84,78,68,30.01,29.96,8,4,14,0.00
2014-7-29,84.5,79.4,74.0,72.7,70.5,68.1,84,75,62,30.03,29.95,8,4,14,0.00
2014-7-30,84.8,78.3,73.1,72.0,69.0,67.1,84,74,59,30.00,29.93,8,4,0,0.00
2014-7-31,84.4,78.8,75.0,73.2,70.8,68.2,85,77,66,29.98,29.91,9,5,0,0.00
2014-8-1,85.0,79.1,75.0,74.3,71.4,69.1,90,78,64,29.97,29.89,8,4,18,0.01
2014-8-2,86.7,80.2,76.5,74.3,71.6,70.0,86,76,59,29.98,29.89,9,5,16,0.00
2014-8-3,85.6,79.9,76.0,74.2,71.6,69.9,83,76,60,29.98,29.90,7,4,14,0.00
2014-8-4,85.1,79.8,76.4,74.1,71.5,69.6,84,76,64,30.00,29.91,10,5,15,0.00
2014-8-5,84.5,79.4,76.1,72.7,69.9,67.8,81,73,63,30.02,29.94,9,5,15,0.00
2014-8-6,84.8,79.1,75.0,72.1,69.5,65.6,89,73,54,30.01,29.93,8,5,13,0.05
2014-8-7,83.6,78.3,74.3,76.0,72.8,70.3,92,83,73,29.99,29.88,10,7,18,0.15
2014-8-8,82.1,78.2,74.8,74.5,72.8,68.4,92,84,73,29.94,29.80,12,7,21,0.43
2014-8-9,82.9,78.9,76.9,75.7,72.9,71.2,87,82,74,29.97,29.88,7,4,13,0.01
2014-8-10,85.4,78.5,74.1,74.5,71.7,68.9,88,80,69,30.01,29.89,5,2,12,0.00
2014-8-11,83.8,78.8,73.3,76.1,72.4,66.6,86,81,77,30.02,29.94,7,3,13,0.00
2014-8-12,86.0,79.3,73.1,75.6,72.4,68.5,89,80,67,30.02,29.91,7,2,11,0.00
2014-8-13,85.4,79.3,75.2,73.1,70.8,69.2,83,76,63,29.98,29.90,7,4,13,0.00
2014-8-14,86.0,79.3,73.7,71.0,69.3,67.5,85,72,57,29.97,29.90,7,4,13,0.00
2014-8-15,85.0,78.8,74.3,72.3,69.2,67.5,82,73,60,29.97,29.91,8,4,14,0.00
2014-8-16,84.2,78.8,73.8,72.4,70.6,69.0,86,76,66,29.99,29.92,8,5,15,0.02
2014-8-17,85.5,79.6,75.8,71.7,70.0,67.9,85,73,56,30.00,29.92,8,5,19,0.00
2014-8-18,85.1,78.3,73.9,73.5,70.3,67.5,85,77,65,29.99,29.92,7,4,13,0.01
2014-8-19,84.2,77.8,72.7,73.9,70.2,67.9,92,78,64,29.97,29.86,8,3,15,0.13
2014-8-20,83.8,77.1,70.9,73.4,70.8,68.0,91,81,70,29.98,29.90,7,3,17,0.02
2014-8-21,84.7,77.5,72.8,75.5,71.5,69.7,92,82,69,30.02,29.92,8,4,14,0.12
2014-8-22,84.5,78.7,74.7,73.8,70.7,67.9,85,77,64,30.00,29.91,8,4,14,0.00
2014-8-23,85.0,78.6,73.7,72.7,70.5,68.5,88,77,63,29.95,29.85,7,3,11,0.02
2014-8-24,85.4,78.2,71.2,73.9,71.2,68.4,92,80,65,29.93,29.85,6,2,10,0.10
2014-8-25,83.6,77.4,72.8,74.8,71.7,69.1,90,83,70,29.93,29.85,7,4,12,0.08
2014-8-26,83.8,76.1,71.8,74.8,70.1,66.9,92,82,67,29.93,29.85,10,3,18,0.17
2014-8-27,84.6,78.5,73.0,72.7,69.7,67.1,86,75,63,29.91,29.83,16,3,18,0.00
2014-8-28,83.1,78.0,72.9,73.6,70.3,66.4,86,77,70,29.90,29.81,12,3,15,0.00
2014-8-29,84.6,78.4,72.7,73.9,70.9,67.3,89,78,67,29.91,29.85,11,2,15,0.03
2014-8-30,83.7,77.7,72.3,73.2,70.1,67.3,90,78,64,29.95,29.86,8,2,13,0.00
2014-8-31,87.3,79.4,71.1,75.0,70.6,63.0,84,75,63,30.00,29.90,10,2,13,0.00
2014-9-1,87.6,79.9,73.8,75.7,72.3,68.7,88,78,66,30.01,29.92,11,2,15,0.00
2014-9-2,87.1,80.4,75.6,75.6,72.2,70.3,86,77,66,30.00,29.91,13,3,16,0.00
2014-9-3,86.2,79.7,71.4,73.9,71.0,68.7,91,75,61,29.98,29.91,15,4,20,0.22
2014-9-4,84.7,77.9,71.8,73.0,70.4,67.5,89,78,66,29.96,29.88,10,2,14,0.00
2014-9-5,84.9,78.2,73.0,75.0,72.0,69.3,91,82,69,29.96,29.86,11,2,14,0.12
2014-9-6,85.3,78.6,72.3,75.2,71.4,68.0,91,79,68,29.96,29.88,14,3,16,0.03
2014-9-7,84.0,78.8,73.0,74.5,71.3,67.1,86,78,70,29.98,29.89,13,2,15,0.00
2014-9-8,85.6,79.0,73.8,73.9,70.6,67.8,86,76,60,29.98,29.90,12,2,15,0.00
2014-9-9,86.7,79.5,73.2,72.5,70.0,66.6,85,73,55,29.99,29.92,13,2,15,0.00
2014-9-10,87.3,80.0,74.5,73.2,69.9,67.6,84,72,57,29.99,29.90,11,3,16,0.00
2014-9-11,86.2,79.2,73.0,74.7,70.6,67.3,84,75,64,29.98,29.89,9,2,17,0.00
2014-9-12,85.5,79.1,74.1,74.3,70.8,68.0,83,76,64,29.96,29.87,13,2,15,0.00
2014-9-13,84.6,78.9,73.8,74.5,71.6,68.2,87,79,67,29.94,29.85,13,2,18,0.00
2014-9-14,84.4,79.0,72.9,74.8,71.7,67.8,85,78,66,29.93,29.83,9,2,12,0.00
2014-9-15,84.2,79.4,73.8,75.9,73.3,70.2,92,82,71,29.93,29.84,11,2,14,0.21
2014-9-16,84.6,79.6,75.2,76.3,72.7,68.9,85,79,72,29.94,29.85,12,2,15,0.00
2014-9-17,84.4,78.8,72.0,75.9,71.9,66.9,87,80,70,29.95,29.87,12,2,15,0.00
2014-9-18,86.4,79.7,73.8,75.4,71.9,67.1,86,77,66,29.93,29.85,12,2,14,0.00
2014-9-19,86.5,80.0,72.7,76.1,72.4,66.4,90,78,68,29.93,29.83,10,2,13,0.00
2014-9-20,88.7,80.8,74.1,76.8,73.3,69.3,88,78,64,29.94,29.83,9,2,15,0.00
2014-9-21,88.2,81.6,75.7,77.4,73.5,70.2,86,77,66,30.00,29.87,14,2,20,0.00
2014-9-22,86.4,81.3,77.5,75.2,73.2,71.1,86,77,62,30.02,29.94,14,3,17,0.00
2014-9-23,85.6,80.7,76.6,73.9,72.1,69.1,84,75,58,30.02,29.95,15,4,18,0.00
2014-9-24,85.6,79.9,74.7,75.4,73.0,71.1,92,80,68,30.03,29.95,12,3,19,0.07
2014-9-25,83.5,77.4,74.7,76.8,73.9,72.1,93,89,78,30.01,29.91,15,3,17,0.42
2014-9-26,86.4,79.2,74.1,77.0,73.9,71.1,92,84,71,29.98,29.90,12,3,16,0.08
2014-9-27,85.8,79.5,75.0,76.5,73.8,72.0,93,83,71,29.96,29.87,13,4,16,0.30
2014-9-28,83.5,77.2,74.5,75.9,72.2,68.9,90,85,74,29.94,29.85,11,2,22,0.07
2014-9-29,85.6,79.0,74.8,76.8,73.6,71.4,91,84,72,29.93,29.84,7,1,13,0.01
2014-9-30,88.9,79.9,73.8,76.5,72.6,68.9,87,79,62,29.93,29.84,6,1,9,0.00
2014-10-1,85.8,79.8,73.6,75.0,72.1,68.4,86,78,65,29.93,29.83,13,2,16,0.00
2014-10-2,86.4,80.0,73.8,75.6,72.0,67.6,86,77,67,29.94,29.85,12,2,14,0.00
2014-10-3,87.1,79.4,74.1,74.5,71.9,69.1,89,78,60,29.96,29.86,11,3,15,0.15
2014-10-4,87.4,78.9,73.9,75.4,71.7,69.1,90,79,64,29.93,29.82,10,1,13,0.16
2014-10-5,86.4,78.3,72.1,75.0,71.1,68.4,91,79,60,29.90,29.81,11,1,12,0.00
2014-10-6,87.4,79.8,72.3,75.7,72.1,68.2,88,78,61,29.93,29.82,7,1,12,0.00
2014-10-7,86.0,79.5,73.2,75.7,72.5,69.4,90,80,67,29.99,29.89,9,1,11,0.00
2014-10-8,86.7,79.8,73.9,75.7,72.5,69.4,89,79,67,30.02,29.92,15,2,18,0.02
2014-10-9,84.6,79.3,74.7,74.3,72.4,70.9,91,80,67,30.00,29.90,21,3,21,0.06
2014-10-10,85.5,79.7,75.0,73.9,71.7,70.0,90,77,63,30.00,29.90,19,5,21,0.02
2014-10-11,85.3,79.5,72.9,73.0,70.9,68.9,90,75,63,29.98,29.87,17,5,22,0.04
2014-10-12,84.2,79.3,75.4,73.9,71.1,69.4,85,76,67,29.98,29.91,17,4,18,0.00
2014-10-13,81.7,76.4,73.2,74.5,70.5,64.2,91,82,64,29.98,29.88,12,3,18,0.85
2014-10-14,84.9,79.0,74.8,74.8,71.7,65.5,89,79,68,29.95,29.85,17,4,19,0.08
2014-10-15,84.6,78.5,74.7,75.0,71.6,68.5,86,79,68,29.94,29.84,12,2,13,0.00
2014-10-16,85.1,79.0,75.0,74.1,71.6,68.5,91,78,67,29.94,29.85,13,3,14,0.02
2014-10-17,80.8,78.0,74.3,77.0,74.8,71.6,93,90,86,29.92,29.80,14,4,21,0.51
2014-10-18,80.1,77.6,74.1,76.1,74.2,71.2,92,89,79,30.01,29.85,11,1,16,0.67
2014-10-19,79.2,77.5,74.8,75.2,73.3,70.9,93,87,80,30.01,29.90,15,3,22,0.28
2014-10-20,85.3,79.7,75.9,75.6,72.6,70.0,84,79,69,29.99,29.90,13,3,18,0.00
2014-10-21,84.7,78.6,74.5,75.7,72.2,67.6,89,81,70,29.98,29.89,11,3,14,0.07
2014-10-22,84.0,76.1,73.2,75.9,71.9,69.6,93,87,73,30.00,29.92,5,1,11,0.72
2014-10-23,83.1,78.0,73.9,73.9,71.6,69.8,89,81,71,30.03,29.94,12,3,16,0.04
2014-10-24,83.3,78.0,73.2,74.3,71.7,69.4,91,81,70,30.01,29.93,16,4,17,0.08
2014-10-25,84.6,78.5,73.0,75.0,71.6,68.7,89,80,66,30.01,29.91,13,3,17,0.00
2014-10-26,83.7,78.9,74.8,73.9,71.6,68.7,88,79,69,30.03,29.94,14,4,18,0.03
2014-10-27,82.9,77.0,72.0,75.0,71.3,68.7,91,83,69,30.01,29.91,14,3,16,0.08
2014-10-28,84.2,77.7,72.5,73.4,70.8,68.2,92,80,68,30.04,29.92,15,4,17,0.48
2014-10-29,82.0,76.7,72.3,74.5,71.3,69.4,93,84,71,30.06,29.97,19,4,20,0.39
2014-10-30,81.5,77.4,73.9,71.1,69.2,67.3,88,76,66,30.05,29.95,19,5,20,0.00
2014-10-31,81.3,77.7,72.9,73.8,71.0,68.0,88,80,72,30.04,29.93,15,4,22,0.03
2014-11-1,82.9,77.7,74.1,73.8,71.3,68.9,89,81,71,30.03,29.96,14,4,20,0.07
2014-11-2,82.4,76.5,72.3,73.8,71.3,68.7,90,84,72,30.02,29.93,15,4,20,0.17
2014-11-3,82.8,78.1,73.8,73.9,71.3,69.4,90,80,70,29.99,29.88,16,4,20,0.03
2014-11-4,84.4,78.6,73.2,75.2,71.7,68.2,87,80,68,29.98,29.88,10,2,13,0.00
2014-11-5,82.9,78.2,74.8,72.0,70.1,68.5,86,76,64,30.02,29.91,16,3,18,0.00
2014-11-6,82.6,77.4,74.1,72.7,70.1,67.8,87,78,69,30.01,29.92,12,2,14,0.00
2014-11-7,84.6,77.2,71.4,72.9,69.4,66.9,87,77,63,29.96,29.85,10,1,13,0.00
2014-11-8,77.7,74.5,70.9,71.2,67.3,62.1,91,79,67,29.97,29.87,15,4,18,0.04
2014-11-9,78.4,73.8,69.3,65.7,63.5,61.7,77,71,61,29.98,29.88,10,2,11,0.00
2014-11-10,80.4,74.3,68.0,70.0,66.8,62.2,87,78,67,29.97,29.89,5,1,9,0.00
2014-11-11,79.9,74.4,68.7,69.6,67.0,62.8,86,78,67,29.96,29.87,9,2,12,0.00
2014-11-12,82.2,75.5,68.7,73.4,68.5,63.0,87,79,65,29.94,29.84,10,1,10,0.02
2014-11-13,80.4,75.3,72.1,74.3,71.6,68.2,92,88,77,29.91,29.80,5,1,9,0.09
2014-11-14,82.6,77.7,74.3,73.4,71.5,69.1,91,82,71,29.86,29.78,9,1,13,0.01
2014-11-15,84.6,60.3,73.2,75.7,55.8,67.3,91,64,72,29.88,29.77,10,2,15,0.27
2014-11-16,77.9,20.3,75.0,70.2,18.2,67.5,84,20,71,30.04,29.86,13,2,17,0.00
2014-11-17,80.2,26.9,75.7,69.3,22.7,64.2,72,22,60,30.08,30.00,15,2,21,0.00
2014-11-18,80.8,46.8,75.4,69.4,40.4,64.2,75,42,58,30.11,30.02,15,3,19,0.01
2014-11-19,80.2,77.0,74.3,70.0,67.5,64.0,82,73,63,30.11,30.01,15,5,20,0.00
2014-11-20,81.1,76.6,72.1,73.0,70.6,68.2,90,82,73,30.08,29.96,21,5,25,0.08
2014-11-21,78.3,76.7,75.0,73.0,70.5,68.9,87,81,77,30.06,29.93,11,3,18,0.02
2014-11-22,83.1,77.6,73.8,71.1,68.5,65.7,82,74,62,30.05,29.93,13,4,18,0.00
2014-11-23,84.2,76.5,68.4,72.3,66.9,61.9,83,73,57,30.00,29.84,8,1,12,0.00
2014-11-24,82.2,73.9,71.1,72.0,67.5,63.5,88,81,70,29.96,29.83,13,3,16,0.01
2014-11-25,78.4,72.8,68.7,66.7,64.3,63.0,85,75,61,30.04,29.93,12,4,17,0.01
2014-11-26,78.6,73.3,69.4,68.4,65.2,63.7,84,76,65,30.07,29.97,14,4,20,0.00
2014-11-27,77.2,74.2,71.4,66.9,64.9,62.8,84,73,65,30.04,29.96,19,6,21,0.00
2014-11-28,75.4,73.5,70.3,68.5,66.4,63.1,89,79,68,30.05,29.96,16,5,19,0.16
2014-11-29,76.8,72.6,68.7,68.7,65.9,63.5,91,80,66,30.00,29.91,14,5,18,0.20
2014-11-30,78.8,73.2,68.2,66.9,64.6,62.2,88,75,63,29.98,29.88,15,5,22,0.06
2014-12-1,75.0,71.5,67.5,66.0,62.8,58.5,88,74,62,30.01,29.91,16,5,19,0.12
2014-12-2,75.7,71.4,67.8,68.4,64.0,58.5,91,78,67,29.99,29.91,13,3,18,0.08
2014-12-3,72.3,69.1,66.9,68.7,66.2,63.5,93,90,86,30.00,29.89,10,2,13,0.24
2014-12-4,77.7,72.6,68.0,67.6,65.6,64.0,91,79,67,30.02,29.91,11,3,14,0.00
2014-12-5,80.4,74.2,70.7,70.0,66.6,62.8,87,77,67,30.01,29.90,12,2,13,0.00
2014-12-6,78.3,73.5,69.6,68.7,65.7,62.8,89,77,67,30.06,29.96,13,3,14,0.01
2014-12-7,80.2,73.2,67.5,67.1,63.7,59.9,79,73,58,30.05,29.93,9,2,16,0.00
2014-12-8,82.9,73.0,66.4,68.4,64.8,60.4,88,76,59,30.04,29.92,10,1,11,0.00
2014-12-9,79.9,72.8,65.7,69.1,65.3,60.3,88,78,64,30.11,29.99,9,1,9,0.00
2014-12-10,78.6,73.5,67.8,69.8,66.3,60.4,90,78,70,30.13,30.02,12,3,14,0.02
2014-12-11,75.2,72.1,69.6,70.7,69.0,67.5,93,90,84,30.09,29.99,13,3,17,0.68
2014-12-12,78.6,73.5,69.1,70.3,68.1,66.0,93,83,73,30.07,29.98,9,2,15,0.02
2014-12-13,79.0,75.0,71.8,68.0,65.4,63.0,80,72,59,30.12,30.01,19,6,22,0.00
2014-12-14,73.9,71.8,68.5,67.8,65.0,59.0,93,80,63,30.13,30.05,21,6,26,0.32
2014-12-15,77.5,72.5,68.2,66.2,63.9,59.7,90,75,62,30.11,30.01,17,6,21,0.03
2014-12-16,76.1,72.2,68.4,69.1,67.0,65.1,90,84,75,30.10,29.99,15,5,22,0.11
2014-12-17,79.0,73.2,67.6,70.7,67.5,62.1,88,82,72,30.14,30.04,12,3,17,0.06
2014-12-18,76.8,73.3,70.2,70.5,68.5,66.7,92,85,79,30.14,30.01,14,4,19,0.16
2014-12-19,80.1,74.7,71.1,71.6,68.1,65.1,88,80,70,30.09,29.95,18,4,20,0.00
2014-12-20,82.4,75.8,70.3,69.6,67.0,63.1,84,75,61,30.03,29.92,10,2,13,0.00
2014-12-21,80.1,74.7,68.7,70.2,67.1,63.7,90,77,65,30.03,29.89,9,1,9,0.10
2014-12-22,77.2,71.1,67.5,70.3,67.0,64.0,93,87,77,30.01,29.90,22,4,26,1.11
2014-12-23,71.4,68.6,64.9,66.7,65.2,62.8,93,89,81,29.98,29.77,18,6,25,0.96
2014-12-24,76.3,70.1,66.6,69.3,65.1,62.4,92,84,73,29.83,29.71,7,1,9,0.07
2014-12-25,78.6,71.7,65.5,68.7,65.1,61.5,89,80,65,29.79,29.69,9,2,12,0.00
2014-12-26,79.3,72.5,66.6,67.5,65.0,62.1,88,78,61,29.84,29.72,14,2,16,0.00
2014-12-27,77.0,71.9,66.0,67.1,62.7,58.8,86,73,64,29.91,29.78,12,3,17,0.00
2014-12-28,75.6,71.7,68.4,63.0,60.3,57.0,73,67,59,29.96,29.85,16,4,16,0.00
2014-12-29,78.3,71.8,67.6,64.2,61.5,59.2,78,70,58,29.94,29.81,7,2,11,0.00
2014-12-30,81.7,70.9,65.5,65.8,63.2,60.3,92,78,51,29.89,29.65,18,2,21,1.22
2014-12-31,77.5,69.4,62.4,63.0,57.8,55.4,86,67,50,29.89,29.77,17,3,19,0.00
2015-1-1,73.9,68.8,63.9,61.9,58.9,55.8,79,71,60,29.90,29.78,17,2,18,0.00
2015-1-2,78.3,70.8,64.2,68.7,64.3,59.5,92,80,64,29.79,29.48,22,3,33,1.51